Hourly Data Report for October 03, 2015

All times are specified in Local Standard Time (LST). Add 1 hour to adjust for Daylight Saving Time where and when it is observed.

CORAL HARBOUR A
NUNAVUT

64°11'36.000" N
83°21'34.000" W
62.20 m
2301002
71915
YZS

Download Data

Hourly Data (October 2015)
Hourly Data Report for October 3, 2015
Temp Definition
°C
Dew Point Temp Definition
°C
Rel Hum Definition
%
Wind Dir Definition
10's deg

Wind Spd Definition
km/h
Visibility Definition
km
Stn Press Definition
kPa
Hmdx Definition


Wind Chill Definition


Weather Definition


TIME
00:00 Legend Double Dagger 0.0 -0.4 97 9 26 12.9 101.73   -6 Drizzle
01:00 Legend Double Dagger 0.1 -0.2 98 10 25 12.9 101.63     Drizzle
02:00 Legend Double Dagger 0.1 -0.2 98 11 28 4.8 101.49     Drizzle,Fog
03:00 Legend Double Dagger 0.2 -0.1 98 10 21 0.4 101.48     Fog
04:00 Legend Double Dagger 0.2 -0.1 98 9 22 0.2 101.39     Fog
05:00 Legend Double Dagger 0.3 0.2 99 10 21 0.2 101.31     Fog
06:00 Legend Double Dagger 0.3 0.2 99 10 21 0.4 101.23     Fog
07:00 Legend Double Dagger 0.3 0.2 99 10 23 0.4 101.07     Fog
08:00 Legend Double Dagger 0.6 0.5 99 13 27 0.2 100.99     Rain Showers,Fog
09:00 Legend Double Dagger 1.6 1.5 99 16 10 1.2 100.93     Fog
10:00 Legend Double Dagger 2.7 2.6 99 18 10 6.4 100.88     Fog
11:00 Legend Double Dagger 2.8 2.5 98 15 7 9.7 100.82     Fog
12:00 Legend Double Dagger 2.9 2.5 97 13 7 12.9 100.80     LegendNANA
13:00 Legend Double Dagger 4.6 4.0 96 9 5 12.9 100.72     Cloudy
14:00 Legend Double Dagger 6.9 5.7 92 27 16 19.3 100.71     LegendNANA
15:00 Legend Double Dagger 6.3 5.1 92 28 17 19.3 100.72     LegendNANA
16:00 Legend Double Dagger 5.5 4.8 95 30 7 9.7 100.72     Fog
17:00 Legend Double Dagger 1.1 -0.2 91 3 33 9.7 100.77     Rain,Fog
18:00 Legend Double Dagger 1.2 -1.0 85 3 41 19.3 100.76     Rain
19:00 Legend Double Dagger 0.4 -2.2 83 4 42 19.3 100.85     Rain
20:00 Legend Double Dagger 0.2 -2.9 80 3 55 24.1 100.97     LegendNANA
21:00 Legend Double Dagger 0.0 -2.5 83 2 41 19.3 101.15   -7 Snow
22:00 Legend Double Dagger 0.1 -2.8 81 2 41 24.1 101.32     Mostly Cloudy
23:00 Legend Double Dagger -0.5 -3.0 83 1 35 24.1 101.40   -8 LegendNANA

Notes on Data Quality.

Legend

  • E = Estimated
  • M = Missing
  • NA = Not Available
  • ‡ = Partner data that is not subject to review by the National Climate Archives
Date modified: